Location: Le Moustier
(44.1000°N, 6.5167°E)
Time: 21:51:56
(UTC+00:00)

Cosmos 2082 - Pass Details

Date: 13 December 2025
Orbit: 831 x 855 km, 71.0° (Epoch: 21 January)

Event Time Altitude Azimuth Distance (km) Brightness Sun altitude
Rises 17:11:09 0° 339° (NNW) 3,425 6.9 -13.0°
Reaches altitude 10° 17:13:47 10° 348° (NNW) 2,489 6.1 -13.4°
Maximum altitude 17:19:08 39° 57° (ENE) 1,253 4.1 -14.3°
Drops below altitude 10° 17:24:28 10° 125° (SE) 2,483 5.8 -15.2°
Sets 17:27:04 0° 133° (SE) 3,415 6.6 -15.7°
